Regional Weather Roundup
Issued by NWS

Home | Current Version | Previous Version | Text Only | Print | Product List | Glossary On
Versions: 1 2 3 4 5 6 7 8 9 10 11 12 13 14 15 16 17 18 19 20 21 22 23 24 25 26 27 28 29 30 31 32 33 34 35 36 37 38 39 40 41 42 43 44 45 46 47 48 49 50
000
ASUS43 KTOP 012359
RWRKS

WEATHER ROUNDUP FOR KANSAS
NATIONAL WEATHER SERVICE GOODLAND KS
700 PM CDT SAT AUG 01 2015

NOTE:  "FAIR" INDICATES FEW OR NO CLOUDS BELOW 12,000 FEET WITH NO
SIGNIFICANT WEATHER AND/OR OBSTRUCTIONS TO VISIBILITY.

KSZ001>006-013>018-027>032-041>047-020100-
NORTHWEST KANSAS

CITY           SKY/WX    TMP DP  RH WIND       PRES   REMARKS
GOODLAND       SUNNY     87  51  28 SE15      30.03S
6HR MIN TEMP:  87; 6HR MAX TEMP:  91;

HAYS           SUNNY     91  61  35 SE14      29.95F
HILL CITY      SUNNY     92  59  33 SE10      29.96F
6HR MIN TEMP:  88; 6HR MAX TEMP:  94;

RUSSELL        SUNNY     91  61  36 S13       29.94F
6HR MIN TEMP:  87; 6HR MAX TEMP:  94;

$$

KSZ061>065-074>080-084>089-020100-
SOUTHWEST KANSAS

CITY           SKY/WX    TMP DP  RH WIND       PRES   REMARKS
DODGE CITY     SUNNY     87  59  38 SE13      29.99F
6HR MIN TEMP:  85; 6HR MAX TEMP:  90;

ELKHART          N/A    N/A N/A N/A MISG        N/A
GARDEN CITY    MOSUNNY   86  64  47 S12       29.98F
6HR MIN TEMP:  85; 6HR MAX TEMP:  90;

GREAT BEND     SUNNY     90  63  40 S12       29.95F
LIBERAL        SUNNY     88  64  45 S13       29.99S
$$

KSZ066>073-081>083-090>101-020100-
SOUTHEAST KANSAS

CITY           SKY/WX    TMP DP  RH WIND       PRES   REMARKS
CHANUTE        SUNNY     89  69  51 S6        29.96F
6HR MIN TEMP:  89; 6HR MAX TEMP:  93;

COFFEYVILLE    SUNNY     90  65  43 S9        29.95F
6HR MIN TEMP:  90; 6HR MAX TEMP:  93;

HUTCHINSON     SUNNY     89  67  47 S12       29.95F
6HR MIN TEMP:  87; 6HR MAX TEMP:  92;

MEDICINE LODGE   N/A     89  68  49 S7        29.94F
NEWTON         SUNNY     88  66  48 S8        29.99F
PARSONS        SUNNY     88  71  57 S6        29.97F
6HR MIN TEMP:  88; 6HR MAX TEMP:  93;

WICHITA INTL   MOSUNNY   89  69  51 S9        29.94F
6HR MIN TEMP:  86; 6HR MAX TEMP:  91;

WICHITA JABRA  SUNNY     88  70  55 S10       29.95F
6HR MIN TEMP:  86; 6HR MAX TEMP:  91;

WICHITA MCCONL SUNNY     88  69  53 S9        29.96F
WINFIELD       SUNNY     87  71  58 S9        29.96F
6HR MIN TEMP:  86; 6HR MAX TEMP:  90;

$$

KSZ007>012-019>026-033>040-048>060-102>105-020100-
NORTHEAST KANSAS

CITY           SKY/WX    TMP DP  RH WIND       PRES   REMARKS
CONCORDIA      MOSUNNY   90  64  42 S10       29.92F
6HR MIN TEMP:  86; 6HR MAX TEMP:  92;

EMPORIA        PTSUNNY   89  68  49 SE7       29.95F
6HR MIN TEMP:  87; 6HR MAX TEMP:  91;

LAWRENCE       SUNNY     89  72  56 SE6       29.94F HX  96
6HR MIN TEMP:  88; 6HR MAX TEMP:  93;

MANHATTAN      SUNNY     91  66  43 S9        29.92F
6HR MIN TEMP:  89; 6HR MAX TEMP:  94;

OLATHE IND     MOSUNNY   85  68  56 SE15      29.97F
6HR MIN TEMP:  85; 6HR MAX TEMP:  93;

OLATHE EXE     MOSUNNY   84  69  60 SE13      29.96F
6HR MIN TEMP:  84; 6HR MAX TEMP:  93;

SALINA         SUNNY     92  63  38 S10       29.93F
6HR MIN TEMP:  90; 6HR MAX TEMP:  95;

TOPEKA BILLARD SUNNY     91  66  43 S7        29.93F
6HR MIN TEMP:  88; 6HR MAX TEMP:  93;

TOPEKA FORBES  SUNNY     92  67  43 S6        29.94F HX  95
6HR MIN TEMP:  90; 6HR MAX TEMP:  94;

$$


USA.gov is the U.S. government's official web portal to all federal, state and local government web resources and services.